Location: Unspecified
(0.0000°N, 0.0000°E)
Time: 09:53:01
(UTC+00:00)

Courier 1B Rocket - Visible Passes

Search period start: 09 February 2016 00:00
Search period end: 19 February 2016 00:00
Orbit: 921 x 1202 km, 28.2° (Epoch: 08 February)

Date Brightness Start Highest point End Pass type
(mag) Time Alt. Az. Time Alt. Az. Time Alt. Az.
09 Feb 5.9 20:06:55 10° SW 20:12:58 36° SSE 20:13:01 36° SSE visible
10 Feb 7.5 05:46:27 10° N 05:48:41 11° NNE 05:50:53 10° NE visible
10 Feb 6.4 19:06:43 10° SSW 19:11:49 24° SSE 19:15:51 14° ESE visible
10 Feb 6.4 20:58:43 10° WSW 21:02:14 34° SW 21:02:14 34° SW visible
11 Feb 5.2 19:57:59 10° SW 20:04:22 56° SSE 20:05:07 53° SE visible
12 Feb 7.3 05:35:52 10° NNW 05:40:31 17° NNE 05:45:04 10° ENE visible
12 Feb 5.8 18:57:31 10° SW 19:03:20 36° SSE 19:08:03 16° E visible
12 Feb 6.1 20:50:19 10° WSW 20:54:26 40° W 20:54:26 40° W visible
13 Feb 7.5 04:36:01 10° N 04:38:48 12° NNE 04:41:34 10° NE visible
13 Feb 4.9 19:49:18 10° WSW 19:55:47 87° SSE 19:57:25 55° ENE visible
14 Feb 7.0 05:26:06 10° NNW 05:32:10 24° NNE 05:38:06 10° ENE visible
14 Feb 5.2 18:48:34 10° SW 18:54:47 57° SSE 19:00:25 14° ENE visible
14 Feb 6.2 20:42:16 10° W 20:46:48 35° WNW 20:46:48 35° WNW visible
15 Feb 7.2 04:26:53 13° N 04:30:36 17° NNE 04:35:26 10° ENE visible
15 Feb 5.3 19:40:57 10° WSW 19:47:13 59° NNW 19:49:50 36° NNE visible
16 Feb 7.6 03:29:48 12° NNE 03:29:48 12° NNE 03:31:53 10° NE visible
16 Feb 6.5 05:16:39 10° NW 05:23:40 36° NNE 05:30:32 10° E visible
16 Feb 5.0 18:39:55 10° WSW 18:46:13 90° SE 18:52:48 10° ENE visible
16 Feb 6.6 20:34:40 10° W 20:39:16 25° NW 20:39:16 25° NW visible
17 Feb 6.9 04:19:07 20° N 04:22:12 25° NNE 04:28:22 10° ENE visible
17 Feb 6.0 19:32:56 10° W 19:38:43 37° NNW 19:42:19 21° NNE visible
18 Feb 7.3 03:22:07 17° NE 03:22:07 17° NE 03:25:36 10° ENE visible
18 Feb 6.0 05:08:30 14° NW 05:15:02 53° NNE 05:22:31 10° ESE visible
18 Feb 5.5 18:31:33 10° WSW 18:37:41 57° NNW 18:44:01 10° NE visible
18 Feb 7.0 20:27:42 10° WNW 20:31:35 16° NNW 20:31:45 16° NNW visible
